Regional Weather Roundup
Issued by NWS Burlington, VT

Home | Current Version | Previous Version | Text Only | Print | Product List | Glossary On
Versions: 1 2 3 4 5 6 7 8 9 10 11 12 13 14 15 16 17 18 19 20 21 22 23 24 25 26 27 28 29 30 31 32 33 34 35 36 37 38 39 40 41 42 43 44 45 46 47 48 49 50
000
ASUS41 KBTV 241910
RWRBTV
VERMONT REGIONAL WEATHER ROUNDUP
NATIONAL WEATHER SERVICE BURLINGTON VT
300 PM EDT SAT JUN 24 2017

NOTE: "FAIR" INDICATES FEW OR NO CLOUDS BELOW 12,000 FEET WITH NO
SIGNIFICANT WEATHER AND/OR OBSTRUCTIONS TO VISIBILITY.

* THESE REPORTS ARE NOT UNDER NWS QUALITY CONTROL AND/OR DO NOT
  REPORT WEATHER SUCH AS PRECIPITATION AND FOG.

VTZ001>019-242000-
_____VERMONT_____


CITY           SKY/WX    TMP DP  RH WIND       PRES   REMARKS
BURLINGTON     PTSUNNY   81  56  42 W7        29.64R
MONTPELIER     PTSUNNY   74  58  57 NW6       29.71R
MORRISVILLE    MOSUNNY   76  55  48 NW10G17   29.67R
ST. JOHNSBURY*   N/A     78  56  46 MISG      29.63R
LYNDONVILLE*   PTSUNNY   75  55  49 W12G20    29.67R
MIDDLEBURY*    PTSUNNY   77  57  50 NW7       29.66R
RUTLAND*       CLOUDY    77  56  48 NW10G16   29.68R
SPRINGFIELD    MOSUNNY   83  48  29 W17G28    29.66R
HIGHGATE*      PTSUNNY   78  58  50 SW3       29.63S
NEWPORT*       FAIR      74  57  55 W7        29.66R
BENNINGTON     MOSUNNY   77  61  57 SW10G21   29.72R
SUTTON*          N/A     73 N/A N/A MISG        N/A

_____LAKE CHAMPLAIN_____


CITY           SKY/WX    TMP DP  RH WIND       PRES   REMARKS
BURTON ISLAND*   N/A     75  59  57 E3          N/A
COLCHESTER RF*   N/A     75  59  57 S5          N/A
DIAMOND ISL*     N/A     81  48  32 W17         N/A

$$

NYZ007-026>031-035-052-083-087-242000-
_____NORTHERN NEW YORK_____


CITY           SKY/WX    TMP DP  RH WIND       PRES   REMARKS
PLATTSBURGH    MOSUNNY   81  51  35 VRB5G23   29.63S
SARANAC LAKE   PTSUNNY   72  54  53 W9        29.70S
MASSENA        MOSUNNY   80  57  45 W12G22    29.64S
OGDENSBURG*    FAIR      78  54  42 W13G20    29.66R
POTSDAM*       SUNNY     79  61  53 W17G24    29.67R
WATERTOWN      SUNNY     72  58  61 SW17G23   29.74R
FT DRUM        SUNNY     74  58  58 W14G20    29.73R
ALBANY         MOSUNNY   81  54  39 W22G30    29.72R
GLENS FALLS    SUNNY     82  51  34 W10G26    29.67R

$$
NHZ002-005-011-242000-
_____NEW HAMPSHIRE_____


CITY           SKY/WX    TMP DP  RH WIND       PRES   REMARKS
LEBANON        SUNNY     83  52  34 W14G22    29.64R
KEENE          SUNNY     82  56  40 W8        29.66R
MT WASHINGTON  FOG       48  48 100 W36G45      N/A  VSB 0
PLYMOUTH       FAIR      80  51  36 W8G18     29.63R
WHITEFIELD     PTSUNNY   76  58  53 NW7       29.64R

$$

_____REGIONAL QUEBEC LOCATIONS_____


CITY           SKY/WX    TMP DP  RH WIND       PRES   REMARKS
MONTREAL       MOSUNNY   73  61  64 SW18G31   29.61R
QUEBEC CITY    MOSUNNY   77  52  41 W16       29.53S
SHERBROOKE     MOSUNNY   75  57  53 W13G18    29.62R

_____REGIONAL ONTARIO LOCATIONS_____


CITY           SKY/WX    TMP DP  RH WIND       PRES   REMARKS
OTTAWA         MOSUNNY   79  54  41 W20G25    29.64R

______KEY______
VSB  - VISIBILITY IN MILES
WCI  - WIND CHILL INDEX
HX   - HEAT INDEX
$$
NNNN




USA.gov is the U.S. government's official web portal to all federal, state and local government web resources and services.